"Period start","avg(HW err(1)/warn(2) (#))","avg(Visibility (m))","avg(Weather code (#))","avg(Precip intensity (mm/h))","min(HW err(1)/warn(2) (#))","max(HW err(1)/warn(2) (#))","std(HW err(1)/warn(2) (#))","med(HW err(1)/warn(2) (#))","min(Visibility (m))","max(Visibility (m))","std(Visibility (m))","med(Visibility (m))","min(Weather code (#))","max(Weather code (#))","std(Weather code (#))","med(Weather code (#))","min(Precip intensity (mm/h))","max(Precip intensity (mm/h))","std(Precip intensity (mm/h))","med(Precip intensity (mm/h))"
2016-09-27 00:00:00,2,45586,15,0.01,2,2,0,2,32964,50000,5092,46626,0,77,31,0,0.00,0.05,0.02,0.00
2016-09-27 00:10:00,2,47527,0,0.00,2,2,0,2,35409,50000,4365,49542,0,0,0,0,0.00,0.00,0.00,0.00
2016-09-27 00:20:00,2,42770,0,0.00,2,2,0,2,34256,50000,6069,43534,0,0,0,0,0.00,0.00,0.00,0.00
2016-09-27 00:30:00,2,47827,0,0.00,2,2,0,2,44122,50000,2151,48427,0,0,0,0,0.00,0.00,0.00,0.00
2016-09-27 00:40:00,2,45416,0,0.00,2,2,0,2,37409,50000,4934,47280,0,0,0,0,0.00,0.00,0.00,0.00
2016-09-27 00:50:00,2,42193,0,0.00,2,2,0,2,7445,50000,12329,46188,0,0,0,0,0.00,0.00,0.00,0.00
2016-09-27 01:00:00,2,24793,16,0.00,2,2,0,2,9038,47147,12180,22252,0,41,20,0,0.00,0.00,0.00,0.00
2016-09-27 01:10:00,2,49729,0,0.00,2,2,0,2,47293,50000,812,50000,0,0,0,0,0.00,0.00,0.00,0.00
2016-09-27 01:20:00,2,49948,0,0.00,2,2,0,2,49485,50000,154,50000,0,0,0,0,0.00,0.00,0.00,0.00
2016-09-27 01:30:00,2,49652,0,0.00,2,2,0,2,47965,50000,709,50000,0,0,0,0,0.00,0.00,0.00,0.00
2016-09-27 01:40:00,2,25710,29,2.52,2,2,0,2,630,50000,24301,26758,0,71,31,20,0.00,10.05,3.49,0.00
2016-09-27 01:50:00,2,6588,67,4.63,2,2,0,2,565,29823,9705,1610,30,71,12,71,0.00,11.10,3.98,3.58
2016-09-27 02:00:00,2,2143,71,3.69,2,2,0,2,791,5701,1386,1664,71,71,0,71,1.20,7.55,1.81,3.62
2016-09-27 02:10:00,2,37311,30,0.02,2,2,0,2,12993,50000,10853,39296,20,71,20,20,0.00,0.20,0.06,0.00
2016-09-27 02:20:00,2,47891,20,0.00,2,2,0,2,36624,50000,4119,50000,20,20,0,20,0.00,0.00,0.00,0.00
2016-09-27 02:30:00,2,49652,20,0.00,2,2,0,2,46516,50000,1045,50000,20,20,0,20,0.00,0.00,0.00,0.00
2016-09-27 02:40:00,2,49545,20,0.00,2,2,0,2,45454,50000,1364,50000,20,20,0,20,0.00,0.00,0.00,0.00
2016-09-27 02:50:00,2,48388,20,0.00,2,2,0,2,43604,50000,2201,49532,20,20,0,20,0.00,0.00,0.00,0.00
2016-09-27 03:00:00,2,43969,0,0.00,2,2,0,2,34115,50000,5149,43624,0,0,0,0,0.00,0.00,0.00,0.00
2016-09-27 03:10:00,2,39896,0,0.00,2,2,0,2,24721,50000,8435,40460,0,0,0,0,0.00,0.00,0.00,0.00
2016-09-27 03:20:00,2,46794,0,0.00,2,2,0,2,32281,50000,5253,48958,0,0,0,0,0.00,0.00,0.00,0.00
2016-09-27 03:30:00,2,46066,0,0.00,2,2,0,2,39764,50000,3989,47045,0,0,0,0,0.00,0.00,0.00,0.00
2016-09-27 03:40:00,2,47581,0,0.00,2,2,0,2,38464,50000,3701,49708,0,0,0,0,0.00,0.00,0.00,0.00
2016-09-27 03:50:00,2,49275,0,0.00,2,2,0,2,43711,50000,1877,50000,0,0,0,0,0.00,0.00,0.00,0.00
2016-09-27 04:00:00,2,49918,0,0.00,2,2,0,2,49185,50000,244,50000,0,0,0,0,0.00,0.00,0.00,0.00
2016-09-27 04:10:00,2,49117,0,0.00,2,2,0,2,44068,50000,1892,50000,0,0,0,0,0.00,0.00,0.00,0.00
2016-09-27 04:20:00,2,49846,0,0.00,2,2,0,2,48459,50000,462,50000,0,0,0,0,0.00,0.00,0.00,0.00
2016-09-27 04:30:00,2,49943,0,0.00,2,2,0,2,49431,50000,171,50000,0,0,0,0,0.00,0.00,0.00,0.00
2016-09-27 04:40:00,2,42165,0,0.00,2,2,0,2,32938,50000,6244,41103,0,0,0,0,0.00,0.00,0.00,0.00
2016-09-27 04:50:00,2,46669,0,0.00,2,2,0,2,39805,50000,3799,48275,0,0,0,0,0.00,0.00,0.00,0.00
2016-09-27 05:00:00,2,49178,0,0.00,2,2,0,2,46626,50000,1241,50000,0,0,0,0,0.00,0.00,0.00,0.00
2016-09-27 05:10:00,2,28959,20,0.03,2,2,0,2,7425,50000,19757,27094,0,41,20,20,0.00,0.15,0.05,0.00
2016-09-27 05:20:00,2,13511,41,0.01,2,2,0,2,4814,24037,5014,13158,41,41,0,41,0.00,0.05,0.02,0.00
2016-09-27 05:30:00,2,14839,58,0.02,2,2,0,2,5803,29157,8018,12097,0,77,25,77,0.00,0.05,0.02,0.00
2016-09-27 05:40:00,2,21750,36,0.01,2,2,0,2,12179,28096,5420,23648,0,71,20,41,0.00,0.05,0.02,0.00
2016-09-27 05:50:00,2,28365,68,0.02,2,2,0,2,12930,44439,8568,26604,41,77,14,74,0.00,0.05,0.02,0.00
2016-09-27 06:00:00,2,21062,71,0.30,2,2,0,2,3547,43901,12838,23994,71,71,0,71,0.00,1.45,0.42,0.15
2016-09-27 06:10:00,2,8694,71,0.32,2,2,0,2,5770,12311,2169,9094,71,71,0,71,0.05,0.90,0.26,0.33
2016-09-27 06:20:00,2,17651,71,0.07,2,2,0,2,6393,28263,7480,18507,71,71,0,71,0.00,0.25,0.09,0.03
2016-09-27 06:30:00,2,8559,72,0.42,2,2,0,2,3249,16190,4720,7280,71,77,2,71,0.00,1.10,0.40,0.27
2016-09-27 06:40:00,2,9322,71,0.33,2,2,0,2,2264,25624,8232,6388,71,71,0,71,0.00,1.20,0.42,0.08
2016-09-27 06:50:00,2,16500,72,0.02,2,2,0,2,10859,24325,4118,15718,71,77,2,71,0.00,0.10,0.03,0.00
2016-09-27 07:00:00,2,6302,72,0.18,2,2,0,2,4101,9941,1933,5634,71,77,2,71,0.00,1.15,0.33,0.05
2016-09-27 07:10:00,2,6426,74,0.04,2,2,0,2,4549,8293,1031,6105,71,77,3,74,0.00,0.10,0.04,0.03
2016-09-27 07:20:00,2,8150,76,0.07,2,2,0,2,3229,15307,3593,7759,71,77,2,77,0.00,0.20,0.06,0.05
2016-09-27 07:30:00,2,9678,76,0.06,2,2,0,2,4987,12223,2094,10476,71,77,2,77,0.00,0.15,0.05,0.05
2016-09-27 07:40:00,2,1460,71,2.47,2,2,0,2,727,3981,894,1206,71,71,0,71,0.25,5.25,1.42,2.20
2016-09-27 07:50:00,2,2932,71,0.86,2,2,0,2,1728,4156,710,2940,71,71,0,71,0.40,1.90,0.46,0.65
2016-09-27 08:00:00,2,8252,71,0.29,2,2,0,2,3627,15426,3042,8204,71,71,0,71,0.00,0.75,0.21,0.28
2016-09-27 08:10:00,2,13298,71,0.55,2,2,0,2,1160,33970,10048,9424,71,71,0,71,0.00,3.60,1.06,0.10
2016-09-27 08:20:00,2,5185,71,1.76,2,2,0,2,1338,12766,3388,4397,71,71,0,71,0.05,3.90,1.32,1.43
2016-09-27 08:30:00,2,21802,57,0.14,2,2,0,2,3095,50000,14925,17334,0,71,28,71,0.00,0.85,0.28,0.00
2016-09-27 08:40:00,2,42196,4,0.01,2,2,0,2,7384,50000,15690,50000,0,41,12,0,0.00,0.15,0.05,0.00
2016-09-27 08:50:00,2,34486,37,0.01,2,2,0,2,1263,50000,17363,40450,0,77,33,41,0.00,0.05,0.02,0.00
2016-09-27 09:00:00,2,5888,71,3.27,2,2,0,2,636,22716,6182,3871,71,71,0,71,0.05,12.60,4.21,1.23
2016-09-27 09:10:00,2,1382,71,5.44,2,2,0,2,883,2250,388,1220,71,71,0,71,2.80,9.70,2.19,4.57
2016-09-27 09:20:00,2,24249,36,1.44,2,2,0,2,1003,50000,20278,20912,0,71,36,36,0.00,8.35,2.58,0.00
2016-09-27 09:30:00,2,37979,14,0.22,2,2,0,2,2296,50000,18353,49840,0,71,28,0,0.00,1.40,0.46,0.00
2016-09-27 09:40:00,2,13706,72,0.01,2,2,0,2,7328,24228,4716,12312,71,77,2,71,0.00,0.05,0.02,0.00
2016-09-27 09:50:00,2,41250,44,0.00,2,2,0,2,23615,50000,8952,42423,0,77,36,71,0.00,0.00,0.00,0.00
2016-09-27 10:00:00,2,33019,0,0.00,2,2,0,2,18546,44955,9541,32530,0,0,0,0,0.00,0.00,0.00,0.00
2016-09-27 10:10:00,2,4364,65,2.04,2,2,0,2,445,11025,2971,3847,40,71,12,71,0.00,11.40,3.39,0.57
2016-09-27 10:20:00,2,2140,71,7.17,2,2,0,2,453,7227,2304,800,71,72,0,71,0.05,16.00,5.35,7.10
2016-09-27 10:30:00,2,8610,71,0.05,2,2,0,2,4977,17184,3813,6677,71,71,0,71,0.00,0.30,0.09,0.03
2016-09-27 10:40:00,2,10426,73,0.01,2,2,0,2,7134,17710,3209,10302,71,77,3,71,0.00,0.05,0.02,0.00
2016-09-27 10:50:00,2,7806,77,0.04,2,2,0,2,5357,9317,1183,7998,77,77,0,77,0.00,0.05,0.02,0.05
2016-09-27 11:00:00,2,7627,74,0.25,2,2,0,2,2083,23389,5891,5195,71,77,3,74,0.00,1.55,0.45,0.05
2016-09-27 11:10:00,2,29054,55,0.00,2,2,0,2,14305,45052,9409,31810,41,77,18,41,0.00,0.00,0.00,0.00
2016-09-27 11:20:00,2,14648,43,0.17,2,2,0,2,647,28227,6680,16016,41,61,6,41,0.00,1.65,0.50,0.00
2016-09-27 11:30:00,2,2346,70,3.89,2,2,0,2,570,8127,2276,1292,61,71,3,71,0.20,9.35,2.74,3.85
2016-09-27 11:40:00,2,6977,71,0.26,2,2,0,2,3814,9974,1979,7390,71,71,0,71,0.05,1.50,0.42,0.10
2016-09-27 11:50:00,2,1453,71,4.67,2,2,0,2,731,3223,772,1143,71,71,0,71,0.30,7.75,2.71,4.93
2016-09-27 12:00:00,2,3796,71,2.00,2,2,0,2,1165,7738,2346,2929,71,71,0,71,0.25,5.95,1.83,1.10
2016-09-27 12:10:00,2,4791,71,1.71,2,2,0,2,1412,8714,2252,4688,71,71,0,71,0.00,6.25,1.96,0.93
2016-09-27 12:20:00,2,8562,71,0.03,2,2,0,2,5756,11500,1807,8795,71,71,0,71,0.00,0.10,0.03,0.00
2016-09-27 12:30:00,2,1968,73,1.51,2,2,0,2,1311,2757,529,1767,71,77,3,71,0.25,4.65,1.38,1.18
2016-09-27 12:40:00,2,1191,71,4.99,2,2,0,2,696,1839,337,1204,71,71,0,71,0.60,10.00,2.90,5.38
2016-09-27 12:50:00,2,1214,71,5.46,2,2,0,2,525,2472,712,936,71,72,0,71,1.35,10.30,3.54,5.40
2016-09-27 13:00:00,2,6134,71,0.55,2,2,0,2,2367,10857,3004,5446,71,71,0,71,0.00,1.50,0.58,0.25
2016-09-27 13:10:00,2,5159,71,0.68,2,2,0,2,1611,9553,2423,5010,71,71,0,71,0.10,2.65,0.84,0.28
2016-09-27 13:20:00,2,4646,71,1.20,2,2,0,2,1447,8533,2604,3658,71,71,0,71,0.10,4.10,1.44,0.50
2016-09-27 13:30:00,2,2810,71,3.76,2,2,0,2,733,6219,2011,1891,71,71,0,71,0.15,10.70,3.65,3.02
2016-09-27 13:40:00,2,1416,71,5.70,2,2,0,2,761,2162,526,1398,71,71,0,71,1.85,8.85,2.38,5.65
2016-09-27 13:50:00,2,2348,71,2.85,2,2,0,2,960,5284,1319,1800,71,71,0,71,0.15,6.85,2.31,2.93
2016-09-27 14:00:00,2,6156,71,0.14,2,2,0,2,4239,9874,1598,5536,71,71,0,71,0.00,0.30,0.09,0.10
2016-09-27 14:10:00,2,5654,74,0.44,2,2,0,2,1292,11080,3179,4315,71,77,3,74,0.05,2.10,0.60,0.20
2016-09-27 14:20:00,2,3652,71,3.33,2,2,0,2,415,7360,2505,2968,71,71,0,71,0.00,20.55,6.00,0.70
2016-09-27 14:30:00,2,9173,71,1.94,2,2,0,2,892,26160,8888,5611,71,71,0,71,0.00,6.85,2.27,1.25
2016-09-27 14:40:00,2,4881,71,2.44,2,2,0,2,1015,19660,5398,2747,71,71,0,71,0.00,7.30,2.57,1.20
2016-09-27 14:50:00,2,4119,71,0.33,2,2,0,2,3094,5305,684,4171,71,71,0,71,0.10,0.40,0.08,0.35
2016-09-27 15:00:00,2,2469,71,2.52,2,2,0,2,712,4303,1106,2640,71,71,0,71,0.45,9.65,2.99,1.25
2016-09-27 15:10:00,2,1655,71,4.88,2,2,0,2,610,5724,1537,971,71,71,0,71,0.10,12.10,3.50,4.25
2016-09-27 15:20:00,2,1008,71,6.33,2,2,0,2,776,1313,146,1033,71,72,0,71,3.20,9.80,2.20,6.08
2016-09-27 15:30:00,2,2226,71,2.41,2,2,0,2,849,4854,1280,1628,71,71,0,71,0.15,7.20,2.17,1.77
2016-09-27 15:40:00,2,15234,73,0.04,2,2,0,2,6160,25008,6281,15234,71,77,3,71,0.00,0.20,0.07,0.00
2016-09-27 15:50:00,2,7808,74,0.17,2,2,0,2,4224,22980,5227,5840,71,77,3,74,0.00,0.70,0.20,0.10
2016-09-27 16:00:00,2,3992,71,3.18,2,2,0,2,407,7160,2583,4386,71,71,0,71,0.05,12.75,4.78,0.28
2016-09-27 16:10:00,2,2065,71,5.88,2,2,0,2,377,4622,1445,1670,71,71,0,71,0.30,19.05,5.67,3.75
2016-09-27 16:20:00,2,1044,71,10.10,2,2,0,2,271,2873,846,705,71,72,0,71,1.80,17.00,5.68,10.80
2016-09-27 16:30:00,2,1251,71,6.31,2,2,0,2,561,2245,539,1244,71,72,0,71,1.50,15.70,3.95,6.03
2016-09-27 16:40:00,2,2844,71,4.51,2,2,0,2,591,6584,2335,1514,71,72,0,71,0.15,12.15,4.10,4.30
2016-09-27 16:50:00,2,1217,71,3.60,2,2,0,2,548,2678,618,958,71,71,0,71,0.10,8.50,2.00,3.75
2016-09-27 17:00:00,2,2942,71,0.70,2,2,0,2,2023,3831,613,3027,71,71,0,71,0.15,1.55,0.44,0.68
2016-09-27 17:10:00,2,5519,73,0.51,2,2,0,2,1173,10717,3226,5148,71,77,3,71,0.00,2.55,0.74,0.27
2016-09-27 17:20:00,2,656,71,11.21,2,2,0,2,280,1032,254,602,71,72,0,71,3.55,19.90,5.66,10.82
2016-09-27 17:30:00,2,1808,71,4.42,2,2,0,2,260,3149,769,2033,71,72,0,71,0.30,22.40,6.92,1.12
2016-09-27 17:40:00,2,2554,71,3.34,2,2,0,2,557,5229,1450,2552,71,71,0,71,0.25,11.00,4.03,1.08
2016-09-27 17:50:00,2,3176,71,1.19,2,2,0,2,1421,4719,1139,2952,71,71,0,71,0.15,3.10,1.04,0.85
2016-09-27 18:00:00,2,1681,71,4.21,2,2,0,2,693,4615,1169,1193,71,71,0,71,0.25,9.95,3.08,4.10
2016-09-27 18:10:00,2,4851,71,0.44,2,2,0,2,1414,7399,1840,4754,71,71,0,71,0.05,1.35,0.40,0.33
2016-09-27 18:20:00,2,2983,71,2.52,2,2,0,2,930,6783,2225,1549,71,71,0,71,0.25,5.45,2.00,2.05
2016-09-27 18:30:00,2,4902,71,0.38,2,2,0,2,3291,6063,975,5292,71,71,0,71,0.20,0.65,0.15,0.35
2016-09-27 18:40:00,2,2941,71,1.15,2,2,0,2,1535,5531,1241,2390,71,71,0,71,0.10,2.40,0.67,1.18
2016-09-27 18:50:00,2,2602,71,1.69,2,2,0,2,1192,3752,712,2669,71,71,0,71,0.55,5.75,1.58,1.08
2016-09-27 19:00:00,2,978,71,6.33,2,2,0,2,425,1482,315,958,71,71,0,71,1.55,11.25,3.57,5.83
2016-09-27 19:10:00,2,1542,71,2.31,2,2,0,2,765,2067,462,1684,71,71,0,71,0.85,5.90,1.49,1.88
2016-09-27 19:20:00,2,1642,71,2.10,2,2,0,2,749,3513,797,1398,71,71,0,71,0.40,4.10,1.31,1.97
2016-09-27 19:30:00,2,936,71,5.69,2,2,0,2,527,1515,282,870,71,72,0,71,1.55,13.55,3.36,5.30
2016-09-27 19:40:00,2,1102,71,3.54,2,2,0,2,625,1704,340,1046,71,71,0,71,0.95,11.30,2.75,2.75
2016-09-27 19:50:00,2,2755,71,2.46,2,2,0,2,652,4470,1314,3390,71,71,0,71,0.25,11.60,3.49,0.60
2016-09-27 20:00:00,2,3957,71,0.82,2,2,0,2,1116,6773,1768,3808,71,71,0,71,0.15,2.25,0.78,0.40
2016-09-27 20:10:00,2,2876,71,0.74,2,2,0,2,1485,3920,812,2890,71,71,0,71,0.20,1.95,0.57,0.55
2016-09-27 20:20:00,2,2336,71,1.52,2,2,0,2,859,3505,997,2424,71,71,0,71,0.20,4.60,1.48,0.83
2016-09-27 20:30:00,2,4248,71,0.61,2,2,0,2,1580,14068,3545,2958,71,71,0,71,0.05,1.55,0.45,0.48
2016-09-27 20:40:00,2,7744,71,0.18,2,2,0,2,3373,14210,3239,7768,71,71,0,71,0.00,0.80,0.25,0.08
2016-09-27 20:50:00,2,5150,71,0.63,2,2,0,2,3127,8811,1858,4586,71,71,0,71,0.00,1.90,0.50,0.55
2016-09-27 21:00:00,2,1399,71,5.40,2,2,0,2,344,2739,968,1002,71,72,0,71,1.05,11.45,3.46,4.75
2016-09-27 21:10:00,2,1388,71,3.03,2,2,0,2,649,2251,450,1438,71,72,0,71,1.10,6.60,1.79,2.92
2016-09-27 21:20:00,2,2026,71,1.11,2,2,0,2,1346,2739,537,1874,71,71,0,71,0.40,1.65,0.48,1.30
2016-09-27 21:30:00,2,2377,71,0.53,2,2,0,2,1862,2970,419,2301,71,71,0,71,0.30,0.95,0.20,0.47
2016-09-27 21:40:00,2,3507,72,0.37,2,2,0,2,1446,4138,753,3538,71,77,2,71,0.10,1.60,0.43,0.20
2016-09-27 21:50:00,2,1912,71,0.96,2,2,0,2,1298,2881,442,1914,71,71,0,71,0.35,1.65,0.37,1.00
2016-09-27 22:00:00,2,4057,71,0.32,2,2,0,2,1852,6536,1453,3978,71,71,0,71,0.05,0.70,0.25,0.25
2016-09-27 22:10:00,2,3693,71,0.32,2,2,0,2,2720,4598,663,3626,71,71,0,71,0.10,0.55,0.15,0.33
2016-09-27 22:20:00,2,1714,71,1.34,2,2,0,2,929,2780,615,1569,71,71,0,71,0.65,2.20,0.49,1.27
2016-09-27 22:30:00,2,3283,71,0.26,2,2,0,2,2149,4412,702,3206,71,71,0,71,0.05,0.60,0.22,0.15
2016-09-27 22:40:00,2,2330,71,0.57,2,2,0,2,1364,3672,646,2344,71,71,0,71,0.20,1.55,0.39,0.42
2016-09-27 22:50:00,2,3131,72,0.46,2,2,0,2,1313,5124,1380,2916,71,77,2,71,0.05,1.70,0.50,0.25
2016-09-27 23:00:00,2,6003,77,0.03,2,2,0,2,4446,9778,1656,5316,77,77,0,77,0.00,0.05,0.03,0.03
2016-09-27 23:10:00,2,4621,76,0.23,2,2,0,2,1744,7417,1744,4343,71,77,2,77,0.00,1.20,0.35,0.05
2016-09-27 23:20:00,2,6873,72,0.30,2,2,0,2,2003,10003,2386,7104,71,77,2,71,0.00,1.60,0.49,0.05
2016-09-27 23:30:00,2,6707,76,0.17,2,2,0,2,1849,15864,4665,5122,71,77,2,77,0.00,0.85,0.25,0.10
2016-09-27 23:40:00,2,5852,76,0.11,2,2,0,2,3487,9339,2401,4500,71,77,2,77,0.00,0.25,0.09,0.10
2016-09-27 23:50:00,2,3889,75,0.34,2,2,0,2,1358,6826,1572,3722,71,77,3,77,0.05,0.70,0.24,0.28
